Location: Doughton Park
(36.4224°N, 81.1835°W)
Time: 16:03:23
(UTC-04:00)

Amateur Radio Satellites - All Passes

Search period start: 20 September 2017 15:33
Search period end: 21 September 2017 15:33
Location: Doughton Park, 36.4224°N, 81.1835°W

Satellite Date Start Highest point End Downlink Frequencies (MHz)
Time Altitude Azimuth
Oscar 19 20 Sep 15:35:22 15:38:06 14° 268° (W) 15:40:50 437.125/150
DX 1 20 Sep 15:43:16 15:47:00 29° 290° (WNW) 15:50:43 434.975-435.025
UKube-1 20 Sep 15:43:47 15:47:52 44° 287° (WNW) 15:51:57 .
YUBILEINY 20 Sep 15:48:32 15:52:58 15° 296° (WNW) 15:57:25 435.215
PCSat 20 Sep 15:54:06 15:59:27 66° 114° (ESE) 16:04:50 145.827
AO-7 20 Sep 15:54:54 16:03:14 80° 71° (ENE) 16:11:35 .
NO-84 20 Sep 15:58:21 16:00:53 17° 324° (NW) 16:03:19 435.350 FM
ITUPSAT 1 20 Sep 16:07:42 16:12:01 32° 98° (E) 16:16:19 437.325
MOZHAYETS 4 20 Sep 16:13:07 16:17:27 38° 98° (E) 16:21:44
ITAMSAT 1 20 Sep 16:29:19 16:34:26 68° 258° (WSW) 16:39:36 435.822/435.867
CUBESAT XI-V 20 Sep 16:32:14 16:33:32 11° 91° (E) 16:34:51 437.345
SO-50 20 Sep 16:33:15 16:36:59 25° 309° (NW) 16:40:45 436.795
BEESAT 20 Sep 16:46:31 16:51:20 88° 103° (ESE) 16:56:07 436.000
RS-15 20 Sep 17:36:22 17:46:39 37° 255° (WSW) 17:56:29 29.354- 29.394
PCSat 20 Sep 17:39:44 17:43:20 18° 311° (NW) 17:46:56 145.827
ITUPSAT 1 20 Sep 17:45:51 17:49:38 24° 292° (WNW) 17:53:25 437.325
XW-2C 20 Sep 17:50:03 17:52:20 15° 68° (ENE) 17:54:38 145.795 - 145.815
MOZHAYETS 4 20 Sep 17:51:02 17:54:16 19° 293° (WNW) 17:57:31
AO-7 20 Sep 17:51:14 17:56:41 19° 267° (W) 18:02:12 .
CUTE-I 20 Sep 17:53:08 17:57:00 21° 65° (ENE) 18:00:53 437.470
LilacSat-2 20 Sep 17:57:20 18:00:13 20° 70° (ENE) 18:03:07 437.200
CUBESAT XI-V 20 Sep 18:06:41 18:11:15 60° 286° (WNW) 18:15:47 437.345
NUDT-PHONESAT 20 Sep 18:06:57 18:09:25 17° 69° (ENE) 18:11:53 437.300
DOVE 4 20 Sep 18:08:37 18:13:12 73° 258° (WSW) 18:17:33 437.250
KAITUO 1B 20 Sep 18:28:36 18:32:02 33° 73° (ENE) 18:35:28 145.475/437.950
KKS-1 20 Sep 18:35:40 18:40:08 86° 282° (WNW) 18:44:34 437.445
CUTE 1.7 + AOD 2 20 Sep 18:41:14 18:43:08 13° 66° (ENE) 18:45:02 437.475
XW-2D 20 Sep 18:48:56 18:52:45 87° 256° (WSW) 18:56:37 145.860 - 145.880
HO-68 20 Sep 19:00:25 19:06:54 39° 66° (ENE) 19:13:26 435.675
XW-2B 20 Sep 19:01:13 19:05:00 62° 259° (WSW) 19:08:50 145.730 - 145.750
XW-2F 20 Sep 19:04:08 19:07:54 60° 260° (W) 19:11:41 145.980 - 146.000
STARS 20 Sep 19:10:05 19:14:30 89° 275° (W) 19:18:54 437.465
XW-2A 20 Sep 19:18:20 19:18:50 10° 67° (ENE) 19:19:19 145.665 - 145.685
XW-2C 20 Sep 19:22:48 19:26:14 31° 263° (W) 19:29:41 145.795 - 145.815
LilacSat-2 20 Sep 19:31:11 19:34:19 23° 264° (W) 19:37:29 437.200
CUTE-I 20 Sep 19:31:39 19:36:42 44° 261° (W) 19:41:47 437.470
NUDT-PHONESAT 20 Sep 19:39:52 19:43:03 26° 264° (W) 19:46:16 437.300
ZACube-1 20 Sep 19:44:48 19:45:41 11° 64° (ENE) 19:46:34 437.345
STRAND 1 20 Sep 19:49:53 19:53:22 18° 94° (E) 19:56:48 437.568
SEEDS 20 Sep 19:53:07 19:57:15 52° 74° (ENE) 20:01:23 437.485
KAITUO 1B 20 Sep 20:04:08 20:06:05 14° 267° (W) 20:08:02 145.475/437.950
CUBEBUG 2 20 Sep 20:07:33 20:11:42 68° 75° (ENE) 20:15:58 437.445
CUTE 1.7 + AOD 2 20 Sep 20:14:20 20:18:29 50° 260° (W) 20:22:40 437.475
UWE-3 20 Sep 20:21:46 20:25:54 54° 74° (ENE) 20:30:09 435.000/436.395/437.385
BEESAT 3 20 Sep 20:23:10 20:26:28 25° 112° (ESE) 20:29:48 437.485
AAUSAT CUBESAT 2 20 Sep 20:26:25 20:30:29 55° 75° (ENE) 20:34:34 437.432
Tancredo 1 20 Sep 20:28:18 20:30:43 30° 134° (SE) 20:33:10 437.200
XW-2A 20 Sep 20:47:59 20:51:08 36° 262° (W) 20:54:20 145.665 - 145.685
HO-68 20 Sep 20:48:09 20:54:34 36° 262° (W) 21:01:02 435.675
ISS 20 Sep 21:03:19 21:03:35 10° 126° (SE) 21:03:51 437.550
AO-73 20 Sep 21:16:20 21:20:35 73° 259° (W) 21:24:58 145.935
ZACube-1 20 Sep 21:17:07 21:21:20 62° 260° (W) 21:25:41 437.345
Oscar 11 20 Sep 21:19:23 21:23:44 84° 77° (ENE) 21:28:07 .
STRAND 1 20 Sep 21:27:48 21:32:43 47° 288° (WNW) 21:37:37 437.568
SEEDS 20 Sep 21:32:04 21:33:11 11° 269° (W) 21:34:18 437.485
JUGNU 20 Sep 21:44:44 21:47:50 15° 175° (S) 21:50:56 437.505
nSIGHT-1 20 Sep 21:46:18 21:49:17 35° 133° (SE) 21:52:16 .
AO-85 20 Sep 21:58:41 22:02:35 78° 299° (WNW) 22:06:30 145.980
BEESAT 2 20 Sep 21:59:01 22:03:00 84° 296° (WNW) 22:07:04 435.950
BEESAT 3 20 Sep 22:00:37 22:03:56 25° 308° (NW) 22:07:18 437.485
UWE-3 20 Sep 22:01:56 22:02:42 10° 270° (W) 22:03:29 435.000/436.395/437.385
Tancredo 1 20 Sep 22:03:25 22:05:21 17° 329° (NNW) 22:07:16 437.200
EO-88 20 Sep 22:13:04 22:16:28 37° 74° (ENE) 22:19:52 145.990 - 145.960
FO-29 20 Sep 22:18:06 22:23:28 55° 101° (E) 22:29:25 435.910
DELFI C3 20 Sep 22:26:20 22:30:17 72° 259° (W) 22:34:15 145.870
UNISAT 6 20 Sep 22:28:22 22:32:05 23° 95° (E) 22:35:47 437.425
NO-84 20 Sep 22:32:35 22:35:28 76° 228° (SW) 22:38:16 435.350 FM
ISS 20 Sep 22:36:23 22:39:37 64° 320° (NW) 22:42:53 437.550
Max Valier Satellite 20 Sep 22:38:03 22:41:44 68° 259° (W) 22:45:27 145.860
TIGRISAT 20 Sep 22:52:31 22:56:53 38° 98° (E) 23:01:16 435.000
PRISM 20 Sep 22:52:40 22:55:34 19° 95° (E) 22:58:27 437.425
ESTCUBE 1 20 Sep 22:58:48 23:01:10 14° 65° (ENE) 23:03:32 437.505/2401.250
LO-87 20 Sep 23:20:34 23:23:39 29° 73° (ENE) 23:26:46 145.935 - 145.965
nSIGHT-1 20 Sep 23:23:05 23:25:40 22° 329° (NNW) 23:28:17 .
SO-50 20 Sep 23:26:29 23:29:27 17° 47° (NE) 23:32:26 436.795
JUGNU 20 Sep 23:33:01 23:36:02 14° 186° (S) 23:39:02 437.505
EO-88 20 Sep 23:49:06 23:50:15 11° 268° (W) 23:51:24 145.990 - 145.960
YUBILEINY 20 Sep 23:59:40 00:07:53 43° 76° (ENE) 00:16:05 435.215
UNISAT 6 21 Sep 00:04:39 00:08:44 31° 289° (WNW) 00:12:51 437.425
FO-29 21 Sep 00:04:41 00:08:13 18° 294° (WNW) 00:11:58 435.910
SPROUT 21 Sep 00:06:09 00:08:54 17° 68° (ENE) 00:11:41 437.525
ISS 21 Sep 00:15:24 00:16:38 12° 338° (NNW) 00:17:54 437.550
QB50P2 21 Sep 00:15:29 00:18:00 15° 93° (E) 00:20:31 145.880/145.840
PRISM 21 Sep 00:27:20 00:30:49 28° 289° (WNW) 00:34:17 437.425
TIGRISAT 21 Sep 00:29:58 00:33:15 19° 292° (WNW) 00:36:32 435.000
ESTCUBE 1 21 Sep 00:33:06 00:37:30 50° 260° (W) 00:41:55 437.505/2401.250
PCSat 21 Sep 00:44:48 00:49:36 31° 55° (NE) 00:54:22 145.827
SRMSAT 21 Sep 00:51:23 00:54:37 15° 176° (S) 00:57:50 437.500
AIST 2D 21 Sep 00:51:35 00:55:05 63° 284° (WNW) 00:58:32 435.315
NANOSAT C BR1 21 Sep 00:53:11 00:57:04 33° 98° (E) 01:00:56 145.865
LO-87 21 Sep 00:55:31 00:57:07 13° 267° (W) 00:58:44 145.935 - 145.965
DX 1 21 Sep 01:01:39 01:03:56 14° 66° (ENE) 01:06:13 434.975-435.025
SO-50 21 Sep 01:05:43 01:10:14 56° 243° (WSW) 01:14:47 436.795
VELOX 1 21 Sep 01:16:11 01:20:35 85° 80° (E) 01:25:01 145.980
DUCHIFAT 1 21 Sep 01:23:12 01:27:27 69° 102° (ESE) 01:31:41 145.980
50 SAT 21 Sep 01:24:33 01:27:23 26° 72° (ENE) 01:30:13 437.505
POLYITAN 1 21 Sep 01:32:00 01:36:17 71° 284° (WNW) 01:40:33 437.675
EO-79 21 Sep 01:37:17 01:41:30 61° 286° (WNW) 01:45:43 145.935-145.965
SPROUT 21 Sep 01:40:39 01:44:30 34° 262° (W) 01:48:24 437.525
QB50P2 21 Sep 01:49:56 01:53:54 38° 288° (WNW) 01:57:53 145.880/145.840
YUBILEINY 21 Sep 01:56:44 02:04:26 37° 274° (W) 02:12:11 435.215
Oscar 19 21 Sep 02:08:06 02:12:19 25° 96° (E) 02:16:30 437.125/150
BUGSAT 1 21 Sep 02:11:18 02:15:29 62° 101° (E) 02:19:39 437.445
M-CUBED/EXP-1 PRIME 21 Sep 02:24:36 02:27:53 59° 288° (WNW) 02:31:04 437.505
PCSat 21 Sep 02:28:08 02:32:56 33° 251° (WSW) 02:37:42 145.827
NANOSAT C BR1 21 Sep 02:29:36 02:32:29 18° 292° (WNW) 02:35:22 145.865
UKube-1 21 Sep 02:35:02 02:39:20 76° 258° (WSW) 02:43:39 .
DX 1 21 Sep 02:35:31 02:39:41 46° 260° (W) 02:43:53 434.975-435.025
SRMSAT 21 Sep 02:40:04 02:42:59 14° 187° (S) 02:45:54 437.500
Tancredo 1 21 Sep 02:51:02 02:52:28 13° 28° (NNE) 02:53:53 437.200
50 SAT 21 Sep 02:58:30 02:59:54 12° 266° (W) 03:01:20 437.505
Gurwin Techsat 1B 21 Sep 03:06:27 03:11:45 64° 101° (ESE) 03:17:00 435.225
ITUPSAT 1 21 Sep 03:12:03 03:16:07 29° 69° (ENE) 03:20:13 437.325
MOZHAYETS 4 21 Sep 03:12:35 03:16:28 27° 70° (ENE) 03:20:22
O/OREOS (USA 219) 21 Sep 03:17:35 03:21:53 48° 106° (ESE) 03:26:14 437.305
Oscar 19 21 Sep 03:47:01 03:51:38 34° 290° (WNW) 03:56:12 437.125/150
BUGSAT 1 21 Sep 03:49:48 03:50:16 10° 295° (WNW) 03:50:45 437.445
BEESAT 21 Sep 03:50:04 03:54:48 76° 75° (ENE) 03:59:35 436.000
AO-7 21 Sep 04:00:10 04:07:14 30° 97° (E) 04:14:13 .
nSIGHT-1 21 Sep 04:15:50 04:18:15 19° 29° (NNE) 04:20:40 .
Tancredo 1 21 Sep 04:24:34 04:27:14 51° 224° (SW) 04:29:52 437.200
ITAMSAT 1 21 Sep 04:44:39 04:49:44 52° 101° (E) 04:54:47 435.822/435.867
Gurwin Techsat 1B 21 Sep 04:48:11 04:51:06 15° 297° (WNW) 04:54:01 435.225
MOZHAYETS 4 21 Sep 04:49:44 04:53:31 25° 264° (W) 04:57:21
ITUPSAT 1 21 Sep 04:49:56 04:53:52 26° 264° (W) 04:57:50 437.325
O/OREOS (USA 219) 21 Sep 04:58:57 05:01:34 15° 302° (WNW) 05:04:12 437.305
ISS 21 Sep 05:06:17 05:09:30 46° 38° (NE) 05:12:40 437.550
CUBESAT XI-V 21 Sep 05:06:46 05:11:29 85° 258° (WSW) 05:16:13 437.345
KKS-1 21 Sep 05:30:51 05:35:13 63° 74° (ENE) 05:39:35 437.445
RS-15 21 Sep 05:41:49 05:53:14 49° 109° (ESE) 06:04:48 29.354- 29.394
nSIGHT-1 21 Sep 05:51:36 05:54:45 46° 226° (SW) 05:57:53 .
AO-7 21 Sep 05:52:14 06:00:13 55° 294° (WNW) 06:08:11 .
STARS 21 Sep 06:03:50 06:08:05 57° 74° (ENE) 06:12:22 437.465
DOVE 4 21 Sep 06:09:38 06:13:28 32° 98° (E) 06:17:25 437.250
BEESAT 3 21 Sep 06:18:42 06:22:41 85° 59° (ENE) 06:26:34 437.485
BEESAT 2 21 Sep 06:19:18 06:22:42 25° 53° (NE) 06:26:02 435.950
ITAMSAT 1 21 Sep 06:25:21 06:28:45 18° 296° (WNW) 06:32:08 435.822/435.867
XW-2D 21 Sep 06:26:02 06:27:16 11° 92° (E) 06:28:31 145.860 - 145.880
AO-85 21 Sep 06:31:16 06:35:32 42° 56° (ENE) 06:40:06 145.980
XW-2B 21 Sep 06:37:17 06:39:37 15° 93° (E) 06:41:56 145.730 - 145.750
XW-2F 21 Sep 06:39:42 06:42:03 16° 93° (E) 06:44:23 145.980 - 146.000
ISS 21 Sep 06:43:48 06:45:40 14° 232° (SW) 06:47:32 437.550
XW-2C 21 Sep 06:57:36 07:00:57 29° 97° (E) 07:04:16 145.795 - 145.815
STRAND 1 21 Sep 07:03:28 07:07:10 21° 66° (ENE) 07:10:52 437.568
LilacSat-2 21 Sep 07:06:05 07:09:43 40° 98° (E) 07:13:19 437.200
NUDT-PHONESAT 21 Sep 07:12:05 07:15:25 30° 97° (E) 07:18:43 437.300
KAITUO 1B 21 Sep 07:35:31 07:39:15 69° 101° (E) 07:42:57 145.475/437.950
SEEDS 21 Sep 07:42:30 07:42:53 10° 91° (E) 07:43:16 437.485
STARS 21 Sep 07:43:53 07:44:44 10° 268° (W) 07:45:36 437.465
DOVE 4 21 Sep 07:48:03 07:50:56 18° 291° (WNW) 07:53:53 437.250
AO-7 21 Sep 07:50:29 07:51:07 10° 313° (NW) 07:51:45 .
CUTE-I 21 Sep 07:50:48 07:56:10 89° 105° (ESE) 08:01:30 437.470
RS-15 21 Sep 07:53:53 08:05:41 51° 310° (NW) 08:17:36 29.354- 29.394
BEESAT 2 21 Sep 07:57:03 08:00:19 24° 248° (WSW) 08:03:33 435.950
XW-2D 21 Sep 07:58:02 08:01:37 39° 286° (WNW) 08:05:09 145.860 - 145.880
CUBEBUG 2 21 Sep 08:01:14 08:04:36 19° 94° (E) 08:07:58 437.445
CUTE 1.7 + AOD 2 21 Sep 08:01:47 08:05:35 32° 97° (E) 08:09:21 437.475
XW-2B 21 Sep 08:10:30 08:13:49 29° 288° (WNW) 08:17:07 145.730 - 145.750
AO-85 21 Sep 08:12:25 08:15:42 19° 249° (WSW) 08:19:08 145.980
XW-2F 21 Sep 08:12:54 08:16:11 28° 288° (WNW) 08:19:26 145.980 - 146.000
XW-2A 21 Sep 08:12:56 08:14:52 14° 94° (E) 08:16:46 145.665 - 145.685
UWE-3 21 Sep 08:14:53 08:17:35 15° 92° (E) 08:20:15 435.000/436.395/437.385
HO-68 21 Sep 08:17:39 08:24:39 52° 101° (E) 08:31:37 435.675
FO-29 21 Sep 08:30:24 08:33:55 17° 65° (ENE) 08:37:16 435.910
XW-2C 21 Sep 08:32:28 08:34:52 16° 291° (WNW) 08:37:15 145.795 - 145.815
STRAND 1 21 Sep 08:41:13 08:46:00 42° 261° (W) 08:50:50 437.568
LilacSat-2 21 Sep 08:42:03 08:43:35 12° 293° (WNW) 08:45:06 437.200
NUDT-PHONESAT 21 Sep 08:46:51 08:48:59 15° 292° (WNW) 08:51:06 437.300
AO-73 21 Sep 09:07:00 09:10:52 26° 95° (E) 09:14:41 145.935
ZACube-1 21 Sep 09:07:54 09:11:59 31° 96° (E) 09:16:01 437.345
Oscar 11 21 Sep 09:10:02 09:13:05 19° 94° (E) 09:16:07 .
SEEDS 21 Sep 09:14:46 09:18:51 53° 285° (WNW) 09:22:54 437.485
UNISAT 6 21 Sep 09:26:00 09:28:17 14° 66° (ENE) 09:30:37 437.425
CUTE-I 21 Sep 09:34:14 09:35:24 11° 300° (WNW) 09:36:33 437.470
CUBEBUG 2 21 Sep 09:36:56 09:41:16 38° 288° (WNW) 09:45:38 437.445
CUTE 1.7 + AOD 2 21 Sep 09:38:13 09:41:09 18° 292° (WNW) 09:44:04 437.475
PRISM 21 Sep 09:41:49 09:42:23 10° 65° (ENE) 09:42:58 437.425
XW-2A 21 Sep 09:44:43 09:47:33 25° 288° (WNW) 09:50:23 145.665 - 145.685
AAUSAT CUBESAT 2 21 Sep 09:46:08 09:50:08 53° 285° (WNW) 09:54:07 437.432
TIGRISAT 21 Sep 09:49:13 09:52:38 23° 69° (ENE) 09:56:07 435.000
UWE-3 21 Sep 09:49:44 09:54:12 47° 286° (WNW) 09:58:40 435.000/436.395/437.385
HO-68 21 Sep 10:06:06 10:11:57 28° 297° (WNW) 10:17:49 435.675
DELFI C3 21 Sep 10:06:44 10:09:11 16° 94° (E) 10:11:38 145.870
Max Valier Satellite 21 Sep 10:11:57 10:13:42 13° 93° (E) 10:15:25 145.860
FO-29 21 Sep 10:12:45 10:18:39 58° 259° (WSW) 10:23:59 435.910
RS-15 21 Sep 10:14:15 10:22:15 19° 340° (NNW) 10:30:12 29.354- 29.394
AO-73 21 Sep 10:43:11 10:46:57 26° 290° (WNW) 10:50:42 145.935
ZACube-1 21 Sep 10:44:29 10:48:03 23° 291° (WNW) 10:51:36 437.345
Oscar 11 21 Sep 10:45:23 10:49:15 32° 289° (WNW) 10:53:06 .
UNISAT 6 21 Sep 11:00:27 11:04:33 45° 261° (W) 11:08:47 437.425
PRISM 21 Sep 11:13:05 11:17:08 58° 259° (W) 11:21:11 437.425
EO-88 21 Sep 11:17:15 11:20:54 72° 101° (E) 11:24:32 145.990 - 145.960
AIST 2D 21 Sep 11:23:18 11:26:19 27° 73° (ENE) 11:29:22 435.315
TIGRISAT 21 Sep 11:25:36 11:29:11 26° 265° (W) 11:32:51 435.000
DELFI C3 21 Sep 11:40:32 11:43:58 30° 288° (WNW) 11:47:23 145.870
NANOSAT C BR1 21 Sep 11:43:26 11:46:18 18° 68° (ENE) 11:49:12 145.865
Max Valier Satellite 21 Sep 11:44:12 11:47:36 34° 287° (WNW) 11:50:59 145.860
DUCHIFAT 1 21 Sep 12:12:23 12:16:09 34° 72° (ENE) 12:19:57 145.980
POLYITAN 1 21 Sep 12:21:35 12:25:42 58° 75° (ENE) 12:29:52 437.675
LO-87 21 Sep 12:22:25 12:25:58 54° 101° (E) 12:29:30 145.935 - 145.965
EO-79 21 Sep 12:26:38 12:30:47 68° 76° (ENE) 12:34:59 145.935-145.965
ESTCUBE 1 21 Sep 12:28:00 12:32:13 39° 98° (E) 12:36:24 437.505/2401.250
RS-15 21 Sep 12:34:12 12:41:48 18° 18° (NNE) 12:49:11 29.354- 29.394
QB50P2 21 Sep 12:39:14 12:43:25 75° 259° (W) 12:47:39 145.880/145.840
YUBILEINY 21 Sep 12:57:04 13:05:27 54° 90° (E) 13:13:49 435.215
AIST 2D 21 Sep 12:57:34 12:59:31 14° 267° (W) 13:01:29 435.315
BUGSAT 1 21 Sep 12:58:43 13:02:10 28° 71° (ENE) 13:05:39 437.445
M-CUBED/EXP-1 PRIME 21 Sep 13:06:41 13:11:07 82° 253° (WSW) 13:15:17 437.505
VELOX 1 21 Sep 13:09:31 13:12:38 19° 95° (E) 13:15:43 145.980
NANOSAT C BR1 21 Sep 13:18:01 13:21:45 31° 263° (W) 13:25:30 145.865
Oscar 19 21 Sep 13:22:22 13:26:48 29° 68° (ENE) 13:31:16 437.125/150
SPROUT 21 Sep 13:28:12 13:32:18 44° 99° (E) 13:36:24 437.525
O/OREOS (USA 219) 21 Sep 13:29:52 13:34:26 61° 69° (ENE) 13:38:57 437.305
NO-84 21 Sep 13:45:40 13:49:21 38° 129° (SE) 13:52:46 435.350 FM
DUCHIFAT 1 21 Sep 13:49:16 13:51:53 16° 266° (W) 13:54:32 145.980
ESTCUBE 1 21 Sep 14:05:45 14:08:40 17° 293° (WNW) 14:11:36 437.505/2401.250
50 SAT 21 Sep 14:19:05 14:22:10 35° 99° (E) 14:25:13 437.505
Gurwin Techsat 1B 21 Sep 14:24:55 14:30:13 79° 75° (ENE) 14:35:32 435.225
UKube-1 21 Sep 14:25:10 14:28:25 21° 95° (E) 14:31:39 .
DX 1 21 Sep 14:26:04 14:30:01 34° 98° (E) 14:33:58 434.975-435.025
BUGSAT 1 21 Sep 14:34:46 14:37:31 18° 265° (W) 14:40:18 437.445
VELOX 1 21 Sep 14:45:11 14:49:06 33° 289° (WNW) 14:53:01 145.980
RS-15 21 Sep 14:47:03 14:58:31 47° 49° (NE) 15:09:21 29.354- 29.394
YUBILEINY 21 Sep 14:55:16 15:02:33 29° 288° (WNW) 15:09:54 435.215
AO-7 21 Sep 14:56:31 15:03:47 35° 61° (ENE) 15:11:03 .
Oscar 19 21 Sep 15:01:30 15:06:00 30° 263° (W) 15:10:32 437.125/150
SPROUT 21 Sep 15:05:30 15:07:48 14° 294° (WNW) 15:10:05 437.525
O/OREOS (USA 219) 21 Sep 15:12:12 15:13:13 11° 263° (W) 15:14:13 437.305
SO-50 21 Sep 15:17:11 15:21:40 85° 119° (ESE) 15:26:11 436.795
NO-84 21 Sep 15:23:49 15:26:48 22° 322° (NW) 15:29:37 435.350 FM
